Year,Month,Day,Hour,Minute,Value (Times are PST for temperature in C)
2008,07,11,00,00,11.40
2008,07,11,00,01,11.30
2008,07,11,00,02,11.30
2008,07,11,00,03,11.30
2008,07,11,00,04,11.30
2008,07,11,00,05,11.30
2008,07,11,00,06,11.30
2008,07,11,00,07,11.20
2008,07,11,00,08,11.20
2008,07,11,00,09,11.20
2008,07,11,00,10,11.20
2008,07,11,00,11,11.20
2008,07,11,00,12,11.20
2008,07,11,00,13,11.20
2008,07,11,00,14,11.10
2008,07,11,00,15,11.10
2008,07,11,00,16,11.10
2008,07,11,00,17,11.10
2008,07,11,00,18,11.10
2008,07,11,00,19,11.00
2008,07,11,00,20,11.00
2008,07,11,00,21,11.00
2008,07,11,00,22,10.90
2008,07,11,00,23,10.90
2008,07,11,00,24,10.90
2008,07,11,00,25,10.90
2008,07,11,00,26,10.90
2008,07,11,00,27,10.90
2008,07,11,00,28,10.90
2008,07,11,00,29,10.80
2008,07,11,00,30,10.80
2008,07,11,00,31,10.80
2008,07,11,00,32,10.80
2008,07,11,00,33,10.80
2008,07,11,00,34,10.80
2008,07,11,00,35,10.80
2008,07,11,00,36,10.70
2008,07,11,00,37,10.70
2008,07,11,00,38,10.70
2008,07,11,00,39,10.70
2008,07,11,00,40,10.70
2008,07,11,00,41,10.60
2008,07,11,00,42,10.60
2008,07,11,00,43,10.60
2008,07,11,00,44,10.60
2008,07,11,00,45,10.50
2008,07,11,00,46,10.50
2008,07,11,00,47,10.50
2008,07,11,00,48,10.40
2008,07,11,00,49,10.40
2008,07,11,00,50,10.40
2008,07,11,00,51,10.40
2008,07,11,00,52,10.40
2008,07,11,00,53,10.30
2008,07,11,00,54,10.30
2008,07,11,00,55,10.30
2008,07,11,00,56,10.30
2008,07,11,00,57,10.30
2008,07,11,00,58,10.30
2008,07,11,00,59,10.20
2008,07,11,01,00,10.20
2008,07,11,01,01,10.20
2008,07,11,01,02,10.20
2008,07,11,01,03,10.20
2008,07,11,01,04,10.10
2008,07,11,01,05,10.10
2008,07,11,01,06,10.10
2008,07,11,01,07,10.10
2008,07,11,01,08,10.00
2008,07,11,01,09,10.00
2008,07,11,01,10,10.00
2008,07,11,01,11,9.90
2008,07,11,01,12,9.90
2008,07,11,01,13,9.90
2008,07,11,01,14,9.90
2008,07,11,01,15,9.90
2008,07,11,01,16,9.80
2008,07,11,01,17,9.80
2008,07,11,01,18,9.80
2008,07,11,01,19,9.80
2008,07,11,01,20,9.80
2008,07,11,01,21,9.70
2008,07,11,01,22,9.70
2008,07,11,01,23,9.70
2008,07,11,01,24,9.70
2008,07,11,01,25,9.70
2008,07,11,01,26,9.60
2008,07,11,01,27,9.60
2008,07,11,01,28,9.60
2008,07,11,01,29,9.60
2008,07,11,01,30,9.60
2008,07,11,01,31,9.60
2008,07,11,01,32,9.50
2008,07,11,01,33,9.50
2008,07,11,01,34,9.50
2008,07,11,01,35,9.40
2008,07,11,01,36,9.40
2008,07,11,01,37,9.40
2008,07,11,01,38,9.40
2008,07,11,01,39,9.40
2008,07,11,01,40,9.30
2008,07,11,01,41,9.30
2008,07,11,01,42,9.30
2008,07,11,01,43,9.30
2008,07,11,01,44,9.30
2008,07,11,01,45,9.30
2008,07,11,01,46,9.30
2008,07,11,01,47,9.30
2008,07,11,01,48,9.30
2008,07,11,01,49,9.30
2008,07,11,01,50,9.30
2008,07,11,01,51,9.20
2008,07,11,01,52,9.20
2008,07,11,01,53,9.20
2008,07,11,01,54,9.20
2008,07,11,01,55,9.20
2008,07,11,01,56,9.20
2008,07,11,01,57,9.10
2008,07,11,01,58,9.10
2008,07,11,01,59,9.10
2008,07,11,02,00,9.10
2008,07,11,02,01,9.10
2008,07,11,02,02,9.10
2008,07,11,02,03,9.10
2008,07,11,02,04,9.00
2008,07,11,02,05,9.00
2008,07,11,02,06,9.00
2008,07,11,02,07,9.00
2008,07,11,02,08,9.00
2008,07,11,02,09,8.90
2008,07,11,02,10,8.90
2008,07,11,02,11,8.90
2008,07,11,02,12,8.90
2008,07,11,02,13,8.90
2008,07,11,02,14,8.90
2008,07,11,02,15,8.90
2008,07,11,02,16,8.90
2008,07,11,02,17,8.90
2008,07,11,02,18,8.90
2008,07,11,02,19,8.90
2008,07,11,02,20,8.90
2008,07,11,02,21,8.90
2008,07,11,02,22,8.90
2008,07,11,02,23,8.90
2008,07,11,02,24,8.80
2008,07,11,02,25,8.80
2008,07,11,02,26,8.80
2008,07,11,02,27,8.80
2008,07,11,02,28,8.80
2008,07,11,02,29,8.80
2008,07,11,02,30,8.80
2008,07,11,02,31,8.80
2008,07,11,02,32,8.80
2008,07,11,02,33,8.70
2008,07,11,02,34,8.70
2008,07,11,02,35,8.70
2008,07,11,02,36,8.70
2008,07,11,02,37,8.70
2008,07,11,02,38,8.70
2008,07,11,02,39,8.60
2008,07,11,02,40,8.60
2008,07,11,02,41,8.60
2008,07,11,02,42,8.60
2008,07,11,02,43,8.60
2008,07,11,02,44,8.60
2008,07,11,02,45,8.60
2008,07,11,02,46,8.50
2008,07,11,02,47,8.50
2008,07,11,02,48,8.50
2008,07,11,02,49,8.50
2008,07,11,02,50,8.40
2008,07,11,02,51,8.40
2008,07,11,02,52,8.40
2008,07,11,02,53,8.40
2008,07,11,02,54,8.40
2008,07,11,02,55,8.30
2008,07,11,02,56,8.30
2008,07,11,02,57,8.30
2008,07,11,02,58,8.30
2008,07,11,02,59,8.30
2008,07,11,03,00,8.30
2008,07,11,03,01,8.30
2008,07,11,03,02,8.30
2008,07,11,03,03,8.20
2008,07,11,03,04,8.20
2008,07,11,03,05,8.20
2008,07,11,03,06,8.20
2008,07,11,03,07,8.20
2008,07,11,03,08,8.20
2008,07,11,03,09,8.20
2008,07,11,03,10,8.20
2008,07,11,03,11,8.20
2008,07,11,03,12,8.20
2008,07,11,03,13,8.10
2008,07,11,03,14,8.10
2008,07,11,03,15,8.10
2008,07,11,03,16,8.10
2008,07,11,03,17,8.10
2008,07,11,03,18,8.10
2008,07,11,03,19,8.10
2008,07,11,03,20,8.00
2008,07,11,03,21,8.00
2008,07,11,03,22,8.00
2008,07,11,03,23,8.00
2008,07,11,03,24,8.00
2008,07,11,03,25,8.00
2008,07,11,03,26,8.00
2008,07,11,03,27,7.90
2008,07,11,03,28,7.90
2008,07,11,03,29,7.90
2008,07,11,03,30,7.90
2008,07,11,03,31,7.90
2008,07,11,03,32,7.90
2008,07,11,03,33,7.90
2008,07,11,03,34,7.90
2008,07,11,03,35,7.90
2008,07,11,03,36,7.80
2008,07,11,03,37,7.80
2008,07,11,03,38,7.80
2008,07,11,03,39,7.80
2008,07,11,03,40,7.80
2008,07,11,03,41,7.80
2008,07,11,03,42,7.80
2008,07,11,03,43,7.80
2008,07,11,03,44,7.80
2008,07,11,03,45,7.80
2008,07,11,03,46,7.80
2008,07,11,03,47,7.80
2008,07,11,03,48,7.80
2008,07,11,03,49,7.80
2008,07,11,03,50,7.70
2008,07,11,03,51,7.70
2008,07,11,03,52,7.70
2008,07,11,03,53,7.70
2008,07,11,03,54,7.70
2008,07,11,03,55,7.70
2008,07,11,03,56,7.70
2008,07,11,03,57,7.70
2008,07,11,03,58,7.70
2008,07,11,03,59,7.70
2008,07,11,04,00,7.70
2008,07,11,04,01,7.70
2008,07,11,04,02,7.60
2008,07,11,04,03,7.60
2008,07,11,04,04,7.60
2008,07,11,04,05,7.60
2008,07,11,04,06,7.60
2008,07,11,04,07,7.60
2008,07,11,04,08,7.60
2008,07,11,04,09,7.60
2008,07,11,04,10,7.60
2008,07,11,04,11,7.50
2008,07,11,04,12,7.50
2008,07,11,04,13,7.50
2008,07,11,04,14,7.50
2008,07,11,04,15,7.50
2008,07,11,04,16,7.50
2008,07,11,04,17,7.50
2008,07,11,04,18,7.50
2008,07,11,04,19,7.40
2008,07,11,04,20,7.40
2008,07,11,04,21,7.40
2008,07,11,04,22,7.40
2008,07,11,04,23,7.40
2008,07,11,04,24,7.40
2008,07,11,04,25,7.40
2008,07,11,04,26,7.40
2008,07,11,04,27,7.30
2008,07,11,04,28,7.30
2008,07,11,04,29,7.30
2008,07,11,04,30,7.30
2008,07,11,04,31,7.30
2008,07,11,04,32,7.30
2008,07,11,04,33,7.30
2008,07,11,04,34,7.30
2008,07,11,04,35,7.30
2008,07,11,04,36,7.30
2008,07,11,04,37,7.30
2008,07,11,04,38,7.30
2008,07,11,04,39,7.30
2008,07,11,04,40,7.30
2008,07,11,04,41,7.30
2008,07,11,04,42,7.30
2008,07,11,04,43,7.30
2008,07,11,04,44,7.30
2008,07,11,04,45,7.30
2008,07,11,04,46,7.30
2008,07,11,04,47,7.30
2008,07,11,04,48,7.20
2008,07,11,04,49,7.20
2008,07,11,04,50,7.20
2008,07,11,04,51,7.20
2008,07,11,04,52,7.20
2008,07,11,04,53,7.20
2008,07,11,04,54,7.20
2008,07,11,04,55,7.20
2008,07,11,04,56,7.20
2008,07,11,04,57,7.20
2008,07,11,04,58,7.20
2008,07,11,04,59,7.20
2008,07,11,05,00,7.20
2008,07,11,05,01,7.20
2008,07,11,05,02,7.20
2008,07,11,05,03,7.20
2008,07,11,05,04,7.20
2008,07,11,05,05,7.20
2008,07,11,05,06,7.10
2008,07,11,05,07,7.10
2008,07,11,05,08,7.10
2008,07,11,05,09,7.20
2008,07,11,05,10,7.10
2008,07,11,05,11,7.10
2008,07,11,05,12,7.10
2008,07,11,05,13,7.10
2008,07,11,05,14,7.10
2008,07,11,05,15,7.10
2008,07,11,05,16,7.10
2008,07,11,05,17,7.10
2008,07,11,05,18,7.10
2008,07,11,05,19,7.10
2008,07,11,05,20,7.10
2008,07,11,05,21,7.00
2008,07,11,05,22,7.00
2008,07,11,05,23,7.00
2008,07,11,05,24,7.00
2008,07,11,05,25,7.00
2008,07,11,05,26,7.00
2008,07,11,05,27,6.90
2008,07,11,05,28,6.90
2008,07,11,05,29,6.90
2008,07,11,05,30,6.90
2008,07,11,05,31,6.90
2008,07,11,05,32,6.90
2008,07,11,05,33,6.90
2008,07,11,05,34,6.90
2008,07,11,05,35,6.90
2008,07,11,05,36,6.90
2008,07,11,05,37,6.90
2008,07,11,05,38,6.90
2008,07,11,05,39,6.90
2008,07,11,05,40,6.90
2008,07,11,05,41,6.90
2008,07,11,05,42,6.80
2008,07,11,05,43,6.80
2008,07,11,05,44,6.80
2008,07,11,05,45,6.80
2008,07,11,05,46,6.80
2008,07,11,05,47,6.80
2008,07,11,05,48,6.80
2008,07,11,05,49,6.80
2008,07,11,05,50,6.80
2008,07,11,05,51,6.80
2008,07,11,05,52,6.80
2008,07,11,05,53,6.80
2008,07,11,05,54,6.80
2008,07,11,05,55,6.80
2008,07,11,05,56,6.80
2008,07,11,05,57,6.80
2008,07,11,05,58,6.80
2008,07,11,05,59,6.80
2008,07,11,06,00,6.80
2008,07,11,06,01,6.80
2008,07,11,06,02,6.80
2008,07,11,06,03,6.80
2008,07,11,06,04,6.80
2008,07,11,06,05,6.80
2008,07,11,06,06,6.80
2008,07,11,06,07,6.80
2008,07,11,06,08,6.80
2008,07,11,06,09,6.80
2008,07,11,06,10,6.80
2008,07,11,06,11,6.80
2008,07,11,06,12,6.80
2008,07,11,06,13,6.80
2008,07,11,06,14,6.80
2008,07,11,06,15,6.80
2008,07,11,06,16,6.80
2008,07,11,06,17,6.80
2008,07,11,06,18,6.80
2008,07,11,06,19,6.80
2008,07,11,06,20,6.80
2008,07,11,06,21,6.80
2008,07,11,06,22,6.80
2008,07,11,06,23,6.80
2008,07,11,06,24,6.80
2008,07,11,06,25,6.80
2008,07,11,06,26,6.80
2008,07,11,06,27,6.80
2008,07,11,06,28,6.80
2008,07,11,06,29,6.90
2008,07,11,06,30,6.80
2008,07,11,06,31,6.90
2008,07,11,06,32,6.80
2008,07,11,06,33,6.80
2008,07,11,06,34,6.80
2008,07,11,06,35,6.90
2008,07,11,06,36,6.90
2008,07,11,06,37,6.90
2008,07,11,06,38,6.90
2008,07,11,06,39,6.90
2008,07,11,06,40,6.90
2008,07,11,06,41,6.90
2008,07,11,06,42,6.90
2008,07,11,06,43,6.90
2008,07,11,06,44,6.90
2008,07,11,06,45,6.90
2008,07,11,06,46,7.00
2008,07,11,06,47,7.00
2008,07,11,06,48,7.00
2008,07,11,06,49,7.00
2008,07,11,06,50,7.00
2008,07,11,06,51,7.10
2008,07,11,06,52,7.10
2008,07,11,06,53,7.10
2008,07,11,06,54,7.10
2008,07,11,06,55,7.20
2008,07,11,06,56,7.20
2008,07,11,06,57,7.20
2008,07,11,06,58,7.20
2008,07,11,06,59,7.20
2008,07,11,07,00,7.20
2008,07,11,07,01,7.20
2008,07,11,07,02,7.20
2008,07,11,07,03,7.20
2008,07,11,07,04,7.30
2008,07,11,07,05,7.30
2008,07,11,07,06,7.30
2008,07,11,07,07,7.40
2008,07,11,07,08,7.40
2008,07,11,07,09,7.40
2008,07,11,07,10,7.40
2008,07,11,07,11,7.50
2008,07,11,07,12,7.50
2008,07,11,07,13,7.60
2008,07,11,07,14,7.60
2008,07,11,07,15,7.70
2008,07,11,07,16,7.80
2008,07,11,07,17,7.80
2008,07,11,07,18,7.90
2008,07,11,07,19,8.00
2008,07,11,07,20,8.10
2008,07,11,07,21,8.20
2008,07,11,07,22,8.40
2008,07,11,07,23,8.40
2008,07,11,07,24,8.50
2008,07,11,07,25,8.60
2008,07,11,07,26,8.70
2008,07,11,07,27,8.70
2008,07,11,07,28,8.80
2008,07,11,07,29,8.80
2008,07,11,07,30,8.90
2008,07,11,07,31,8.90
2008,07,11,07,32,9.00
2008,07,11,07,33,9.10
2008,07,11,07,34,9.20
2008,07,11,07,35,9.20
2008,07,11,07,36,9.30
2008,07,11,07,37,9.40
2008,07,11,07,38,9.50
2008,07,11,07,39,9.60
2008,07,11,07,40,9.60
2008,07,11,07,41,9.60
2008,07,11,07,42,9.70
2008,07,11,07,43,9.70
2008,07,11,07,44,9.80
2008,07,11,07,45,9.80
2008,07,11,07,46,9.90
2008,07,11,07,47,10.00
2008,07,11,07,48,10.00
2008,07,11,07,49,10.10
2008,07,11,07,50,10.20
2008,07,11,07,51,10.30
2008,07,11,07,52,10.30
2008,07,11,07,53,10.40
2008,07,11,07,54,10.50
2008,07,11,07,55,10.60
2008,07,11,07,56,10.70
2008,07,11,07,57,10.80
2008,07,11,07,58,10.90
2008,07,11,07,59,11.00
2008,07,11,08,00,11.10
2008,07,11,08,01,11.20
2008,07,11,08,02,11.30
2008,07,11,08,03,11.40
2008,07,11,08,04,11.60
2008,07,11,08,05,11.70
2008,07,11,08,06,11.80
2008,07,11,08,07,11.90
2008,07,11,08,08,12.00
2008,07,11,08,09,12.10
2008,07,11,08,10,12.20
2008,07,11,08,11,12.30
2008,07,11,08,12,12.40
2008,07,11,08,13,12.50
2008,07,11,08,14,12.60
2008,07,11,08,15,12.70
2008,07,11,08,16,12.80
2008,07,11,08,17,12.80
2008,07,11,08,18,12.80
2008,07,11,08,19,12.90
2008,07,11,08,20,13.00
2008,07,11,08,21,13.00
2008,07,11,08,22,13.10
2008,07,11,08,23,13.20
2008,07,11,08,24,13.30
2008,07,11,08,25,13.40
2008,07,11,08,26,13.50
2008,07,11,08,27,13.60
2008,07,11,08,28,13.60
2008,07,11,08,29,13.70
2008,07,11,08,30,13.70
2008,07,11,08,31,13.70
2008,07,11,08,32,13.80
2008,07,11,08,33,13.80
2008,07,11,08,34,13.90
2008,07,11,08,35,13.90
2008,07,11,08,36,13.90
2008,07,11,08,37,13.90
2008,07,11,08,38,14.00
2008,07,11,08,39,14.00
2008,07,11,08,40,14.10
2008,07,11,08,41,14.20
2008,07,11,08,42,14.30
2008,07,11,08,43,14.40
2008,07,11,08,44,14.40
2008,07,11,08,45,14.50
2008,07,11,08,46,14.50
2008,07,11,08,47,14.60
2008,07,11,08,48,14.60
2008,07,11,08,49,14.70
2008,07,11,08,50,14.80
2008,07,11,08,51,14.90
2008,07,11,08,52,15.00
2008,07,11,08,53,15.00
2008,07,11,08,54,15.00
2008,07,11,08,55,15.00
2008,07,11,08,56,15.00
2008,07,11,08,57,15.00
2008,07,11,08,58,15.00
2008,07,11,08,59,15.00
2008,07,11,09,00,15.00
2008,07,11,09,01,15.00
2008,07,11,09,02,15.10
2008,07,11,09,03,15.10
2008,07,11,09,04,15.20
2008,07,11,09,05,15.30
2008,07,11,09,06,15.30
2008,07,11,09,07,15.40
2008,07,11,09,08,15.40
2008,07,11,09,09,15.40
2008,07,11,09,10,15.50
2008,07,11,09,11,15.50
2008,07,11,09,12,15.50
2008,07,11,09,13,15.60
2008,07,11,09,14,15.60
2008,07,11,09,15,15.70
2008,07,11,09,16,15.80
2008,07,11,09,17,15.80
2008,07,11,09,18,15.80
2008,07,11,09,19,15.80
2008,07,11,09,20,15.90
2008,07,11,09,21,15.90
2008,07,11,09,22,15.90
2008,07,11,09,23,15.90
2008,07,11,09,24,16.00
2008,07,11,09,25,16.00
2008,07,11,09,26,16.10
2008,07,11,09,27,16.20
2008,07,11,09,28,16.30
2008,07,11,09,29,16.50
2008,07,11,09,30,16.60
2008,07,11,09,31,16.70
2008,07,11,09,32,16.80
2008,07,11,09,33,16.80
2008,07,11,09,34,16.90
2008,07,11,09,35,16.90
2008,07,11,09,36,16.90
2008,07,11,09,37,16.90
2008,07,11,09,38,16.90
2008,07,11,09,39,17.00
2008,07,11,09,40,17.00
2008,07,11,09,41,17.10
2008,07,11,09,42,17.20
2008,07,11,09,43,17.30
2008,07,11,09,44,17.30
2008,07,11,09,45,17.30
2008,07,11,09,46,17.40
2008,07,11,09,47,17.40
2008,07,11,09,48,17.50
2008,07,11,09,49,17.60
2008,07,11,09,50,17.60
2008,07,11,09,51,17.70
2008,07,11,09,52,17.80
2008,07,11,09,53,17.90
2008,07,11,09,54,18.00
2008,07,11,09,55,18.00
2008,07,11,09,56,18.10
2008,07,11,09,57,18.10
2008,07,11,09,58,18.10
2008,07,11,09,59,18.00
2008,07,11,10,00,17.90
2008,07,11,10,01,17.80
2008,07,11,10,02,17.80
2008,07,11,10,03,17.80
2008,07,11,10,04,17.90
2008,07,11,10,05,17.90
2008,07,11,10,06,17.90
2008,07,11,10,07,17.90
2008,07,11,10,08,18.10
2008,07,11,10,09,18.20
2008,07,11,10,10,18.20
2008,07,11,10,11,18.20
2008,07,11,10,12,18.30
2008,07,11,10,13,18.40
2008,07,11,10,14,18.50
2008,07,11,10,15,18.60
2008,07,11,10,16,18.70
2008,07,11,10,17,18.70
2008,07,11,10,18,18.80
2008,07,11,10,19,18.80
2008,07,11,10,20,18.80
2008,07,11,10,21,18.90
2008,07,11,10,22,18.90
2008,07,11,10,23,18.90
2008,07,11,10,24,18.90
2008,07,11,10,25,18.80
2008,07,11,10,26,18.70
2008,07,11,10,27,18.70
2008,07,11,10,28,18.80
2008,07,11,10,29,18.70
2008,07,11,10,30,18.70
2008,07,11,10,31,18.70
2008,07,11,10,32,18.70
2008,07,11,10,33,18.80
2008,07,11,10,34,18.90
2008,07,11,10,35,18.90
2008,07,11,10,36,18.90
2008,07,11,10,37,18.90
2008,07,11,10,38,18.80
2008,07,11,10,39,18.80
2008,07,11,10,40,18.80
2008,07,11,10,41,18.80
2008,07,11,10,42,18.80
2008,07,11,10,43,18.80
2008,07,11,10,44,18.80
2008,07,11,10,45,18.90
2008,07,11,10,46,18.90
2008,07,11,10,47,19.10
2008,07,11,10,48,19.20
2008,07,11,10,49,19.30
2008,07,11,10,50,19.30
2008,07,11,10,51,19.30
2008,07,11,10,52,19.40
2008,07,11,10,53,19.40
2008,07,11,10,54,19.40
2008,07,11,10,55,19.40
2008,07,11,10,56,19.40
2008,07,11,10,57,19.30
2008,07,11,10,58,19.30
2008,07,11,10,59,19.20
2008,07,11,11,00,19.20
2008,07,11,11,01,19.30
2008,07,11,11,02,19.40
2008,07,11,11,03,19.50
2008,07,11,11,04,19.60
2008,07,11,11,05,19.60
2008,07,11,11,06,19.50
2008,07,11,11,07,19.50
2008,07,11,11,08,19.50
2008,07,11,11,09,19.50
2008,07,11,11,10,19.50
2008,07,11,11,11,19.50
2008,07,11,11,12,19.50
2008,07,11,11,13,19.40
2008,07,11,11,14,19.40
2008,07,11,11,15,19.30
2008,07,11,11,16,19.40
2008,07,11,11,17,19.50
2008,07,11,11,18,19.60
2008,07,11,11,19,19.60
2008,07,11,11,20,19.60
2008,07,11,11,21,19.50
2008,07,11,11,22,19.30
2008,07,11,11,23,19.30
2008,07,11,11,24,19.30
2008,07,11,11,25,19.20
2008,07,11,11,26,19.10
2008,07,11,11,27,19.20
2008,07,11,11,28,19.20
2008,07,11,11,29,19.30
2008,07,11,11,30,19.40
2008,07,11,11,31,19.40
2008,07,11,11,32,19.50
2008,07,11,11,33,19.70
2008,07,11,11,34,19.90
2008,07,11,11,35,19.90
2008,07,11,11,36,19.80
2008,07,11,11,37,19.80
2008,07,11,11,38,19.90
2008,07,11,11,39,19.90
2008,07,11,11,40,19.90
2008,07,11,11,41,19.90
2008,07,11,11,42,19.90
2008,07,11,11,43,19.90
2008,07,11,11,44,19.80
2008,07,11,11,45,19.80
2008,07,11,11,46,19.80
2008,07,11,11,47,19.90
2008,07,11,11,48,19.90
2008,07,11,11,49,20.00
2008,07,11,11,50,20.00
2008,07,11,11,51,20.00
2008,07,11,11,52,20.00
2008,07,11,11,53,19.90
2008,07,11,11,54,19.90
2008,07,11,11,55,20.00
2008,07,11,11,56,20.00
2008,07,11,11,57,20.10
2008,07,11,11,58,20.20
2008,07,11,11,59,20.30
2008,07,11,12,00,20.40
2008,07,11,12,01,20.40
2008,07,11,12,02,20.40
2008,07,11,12,03,20.40
2008,07,11,12,04,20.40
2008,07,11,12,05,20.30
2008,07,11,12,06,20.30
2008,07,11,12,07,20.30
2008,07,11,12,08,20.20
2008,07,11,12,09,20.30
2008,07,11,12,10,20.40
2008,07,11,12,11,20.40
2008,07,11,12,12,20.40
2008,07,11,12,13,20.40
2008,07,11,12,14,20.40
2008,07,11,12,15,20.40
2008,07,11,12,16,20.50
2008,07,11,12,17,20.60
2008,07,11,12,18,20.70
2008,07,11,12,19,20.80
2008,07,11,12,20,21.00
2008,07,11,12,21,21.10
2008,07,11,12,22,21.20
2008,07,11,12,23,21.30
2008,07,11,12,24,21.40
2008,07,11,12,25,21.50
2008,07,11,12,26,21.70
2008,07,11,12,27,21.70
2008,07,11,12,28,21.70
2008,07,11,12,29,21.80
2008,07,11,12,30,21.80
2008,07,11,12,31,21.90
2008,07,11,12,32,21.90
2008,07,11,12,33,21.90
2008,07,11,12,34,21.90
2008,07,11,12,35,21.90
2008,07,11,12,36,21.90
2008,07,11,12,37,22.00
2008,07,11,12,38,22.10
2008,07,11,12,39,22.10
2008,07,11,12,40,22.10
2008,07,11,12,41,22.20
2008,07,11,12,42,22.20
2008,07,11,12,43,22.30
2008,07,11,12,44,22.40
2008,07,11,12,45,22.40
2008,07,11,12,46,22.30
2008,07,11,12,47,22.20
2008,07,11,12,48,22.20
2008,07,11,12,49,22.20
2008,07,11,12,50,22.30
2008,07,11,12,51,22.30
2008,07,11,12,52,22.40
2008,07,11,12,53,22.40
2008,07,11,12,54,22.50
2008,07,11,12,55,22.60
2008,07,11,12,56,22.70
2008,07,11,12,57,22.70
2008,07,11,12,58,22.70
2008,07,11,12,59,22.70
2008,07,11,13,00,22.60
2008,07,11,13,01,22.50
2008,07,11,13,02,22.50
2008,07,11,13,03,22.50
2008,07,11,13,04,22.40
2008,07,11,13,05,22.40
2008,07,11,13,06,22.30
2008,07,11,13,07,22.30
2008,07,11,13,08,22.30
2008,07,11,13,09,22.40
2008,07,11,13,10,22.40
2008,07,11,13,11,22.40
2008,07,11,13,12,22.40
2008,07,11,13,13,22.30
2008,07,11,13,14,22.30
2008,07,11,13,15,22.30
2008,07,11,13,16,22.20
2008,07,11,13,17,22.20
2008,07,11,13,18,22.10
2008,07,11,13,19,22.10
2008,07,11,13,20,22.00
2008,07,11,13,21,22.00
2008,07,11,13,22,22.10
2008,07,11,13,23,22.10
2008,07,11,13,24,22.00
2008,07,11,13,25,22.00
2008,07,11,13,26,22.10
2008,07,11,13,27,22.20
2008,07,11,13,28,22.40
2008,07,11,13,29,22.50
2008,07,11,13,30,22.50
2008,07,11,13,31,22.50
2008,07,11,13,32,22.50
2008,07,11,13,33,22.50
2008,07,11,13,34,22.60
2008,07,11,13,35,22.80
2008,07,11,13,36,22.80
2008,07,11,13,37,22.90
2008,07,11,13,38,22.90
2008,07,11,13,39,23.00
2008,07,11,13,40,23.00
2008,07,11,13,41,22.90
2008,07,11,13,42,22.80
2008,07,11,13,43,22.70
2008,07,11,13,44,22.70
2008,07,11,13,45,22.80
2008,07,11,13,46,22.90
2008,07,11,13,47,22.90
2008,07,11,13,48,23.00
2008,07,11,13,49,23.10
2008,07,11,13,50,23.30
2008,07,11,13,51,23.40
2008,07,11,13,52,23.40
2008,07,11,13,53,23.40
2008,07,11,13,54,23.30
2008,07,11,13,55,23.10
2008,07,11,13,56,23.00
2008,07,11,13,57,22.90
2008,07,11,13,58,22.90
2008,07,11,13,59,22.90
2008,07,11,14,00,22.90
2008,07,11,14,01,22.90
2008,07,11,14,02,23.10
2008,07,11,14,03,23.30
2008,07,11,14,04,23.40
2008,07,11,14,05,23.40
2008,07,11,14,06,23.40
2008,07,11,14,07,23.30
2008,07,11,14,08,23.30
2008,07,11,14,09,23.20
2008,07,11,14,10,23.10
2008,07,11,14,11,23.10
2008,07,11,14,12,23.20
2008,07,11,14,13,23.20
2008,07,11,14,14,23.30
2008,07,11,14,15,23.30
2008,07,11,14,16,23.30
2008,07,11,14,17,23.30
2008,07,11,14,18,23.30
2008,07,11,14,19,23.30
2008,07,11,14,20,23.50
2008,07,11,14,21,23.70
2008,07,11,14,22,23.70
2008,07,11,14,23,23.60
2008,07,11,14,24,23.50
2008,07,11,14,25,23.40
2008,07,11,14,26,23.40
2008,07,11,14,27,23.30
2008,07,11,14,28,23.30
2008,07,11,14,29,23.30
2008,07,11,14,30,23.40
2008,07,11,14,31,23.40
2008,07,11,14,32,23.50
2008,07,11,14,33,23.60
2008,07,11,14,34,23.70
2008,07,11,14,35,23.80
2008,07,11,14,36,23.80
2008,07,11,14,37,23.90
2008,07,11,14,38,24.00
2008,07,11,14,39,24.10
2008,07,11,14,40,24.20
2008,07,11,14,41,24.20
2008,07,11,14,42,24.10
2008,07,11,14,43,24.20
2008,07,11,14,44,24.20
2008,07,11,14,45,24.20
2008,07,11,14,46,24.20
2008,07,11,14,47,24.20
2008,07,11,14,48,24.20
2008,07,11,14,49,24.10
2008,07,11,14,50,24.10
2008,07,11,14,51,24.10
2008,07,11,14,52,24.20
2008,07,11,14,53,24.20
2008,07,11,14,54,24.20
2008,07,11,14,55,24.20
2008,07,11,14,56,24.20
2008,07,11,14,57,24.20
2008,07,11,14,58,24.20
2008,07,11,14,59,24.10
2008,07,11,15,00,24.10
2008,07,11,15,01,24.10
2008,07,11,15,02,24.10
2008,07,11,15,03,24.20
2008,07,11,15,04,24.30
2008,07,11,15,05,24.30
2008,07,11,15,06,24.10
2008,07,11,15,07,24.10
2008,07,11,15,08,24.10
2008,07,11,15,09,24.10
2008,07,11,15,10,24.10
2008,07,11,15,11,24.20
2008,07,11,15,12,24.30
2008,07,11,15,13,24.30
2008,07,11,15,14,24.40
2008,07,11,15,15,24.40
2008,07,11,15,16,24.40
2008,07,11,15,17,24.30
2008,07,11,15,18,24.30
2008,07,11,15,19,24.40
2008,07,11,15,20,24.50
2008,07,11,15,21,24.50
2008,07,11,15,22,24.40
2008,07,11,15,23,24.40
2008,07,11,15,24,24.50
2008,07,11,15,25,24.60
2008,07,11,15,26,24.80
2008,07,11,15,27,24.80
2008,07,11,15,28,24.90
2008,07,11,15,29,25.00
2008,07,11,15,30,25.00
2008,07,11,15,31,25.00
2008,07,11,15,32,25.00
2008,07,11,15,33,25.00
2008,07,11,15,34,25.00
2008,07,11,15,35,24.90
2008,07,11,15,36,24.90
2008,07,11,15,37,24.80
2008,07,11,15,38,24.80
2008,07,11,15,39,24.80
2008,07,11,15,40,24.90
2008,07,11,15,41,24.90
2008,07,11,15,42,24.90
2008,07,11,15,43,24.80
2008,07,11,15,44,24.70
2008,07,11,15,45,24.60
2008,07,11,15,46,24.50
2008,07,11,15,47,24.50
2008,07,11,15,48,24.60
2008,07,11,15,49,24.70
2008,07,11,15,50,24.80
2008,07,11,15,51,25.00
2008,07,11,15,52,25.00
2008,07,11,15,53,25.00
2008,07,11,15,54,25.00
2008,07,11,15,55,24.80
2008,07,11,15,56,24.70
2008,07,11,15,57,24.60
2008,07,11,15,58,24.60
2008,07,11,15,59,24.50
2008,07,11,16,00,24.50
2008,07,11,16,01,24.50
2008,07,11,16,02,24.50
2008,07,11,16,03,24.50
2008,07,11,16,04,24.50
2008,07,11,16,05,24.50
2008,07,11,16,06,24.60
2008,07,11,16,07,24.60
2008,07,11,16,08,24.60
2008,07,11,16,09,24.60
2008,07,11,16,10,24.60
2008,07,11,16,11,24.70
2008,07,11,16,12,24.80
2008,07,11,16,13,24.80
2008,07,11,16,14,24.80
2008,07,11,16,15,24.80
2008,07,11,16,16,24.80
2008,07,11,16,17,24.70
2008,07,11,16,18,24.70
2008,07,11,16,19,24.60
2008,07,11,16,20,24.60
2008,07,11,16,21,24.70
2008,07,11,16,22,24.70
2008,07,11,16,23,24.70
2008,07,11,16,24,24.70
2008,07,11,16,25,24.70
2008,07,11,16,26,24.70
2008,07,11,16,27,24.70
2008,07,11,16,28,24.70
2008,07,11,16,29,24.70
2008,07,11,16,30,24.70
2008,07,11,16,31,24.70
2008,07,11,16,32,24.70
2008,07,11,16,33,24.70
2008,07,11,16,34,24.70
2008,07,11,16,35,24.70
2008,07,11,16,36,24.70
2008,07,11,16,37,24.80
2008,07,11,16,38,24.80
2008,07,11,16,39,24.80
2008,07,11,16,40,24.90
2008,07,11,16,41,24.90
2008,07,11,16,42,24.80
2008,07,11,16,43,24.80
2008,07,11,16,44,24.80
2008,07,11,16,45,24.90
2008,07,11,16,46,25.00
2008,07,11,16,47,24.90
2008,07,11,16,48,24.80
2008,07,11,16,49,24.80
2008,07,11,16,50,24.80
2008,07,11,16,51,24.90
2008,07,11,16,52,24.90
2008,07,11,16,53,24.90
2008,07,11,16,54,24.90
2008,07,11,16,55,24.90
2008,07,11,16,56,24.90
2008,07,11,16,57,24.90
2008,07,11,16,58,24.90
2008,07,11,16,59,24.90
2008,07,11,17,00,24.90
2008,07,11,17,01,24.80
2008,07,11,17,02,24.80
2008,07,11,17,03,24.90
2008,07,11,17,04,25.00
2008,07,11,17,05,25.10
2008,07,11,17,06,25.10
2008,07,11,17,07,25.20
2008,07,11,17,08,25.20
2008,07,11,17,09,25.20
2008,07,11,17,10,25.30
2008,07,11,17,11,25.30
2008,07,11,17,12,25.30
2008,07,11,17,13,25.30
2008,07,11,17,14,25.40
2008,07,11,17,15,25.40
2008,07,11,17,16,25.30
2008,07,11,17,17,25.20
2008,07,11,17,18,25.10
2008,07,11,17,19,25.10
2008,07,11,17,20,25.00
2008,07,11,17,21,25.00
2008,07,11,17,22,24.90
2008,07,11,17,23,24.90
2008,07,11,17,24,24.90
2008,07,11,17,25,25.00
2008,07,11,17,26,25.10
2008,07,11,17,27,25.10
2008,07,11,17,28,25.10
2008,07,11,17,29,25.10
2008,07,11,17,30,25.10
2008,07,11,17,31,25.10
2008,07,11,17,32,25.10
2008,07,11,17,33,25.00
2008,07,11,17,34,24.90
2008,07,11,17,35,24.90
2008,07,11,17,36,24.80